Weather in Arrowtown

New Zealand     44°56′18″S   168°49′55″E
temp.,
°C
wind,
m/s
gust,
m/s
humid.,
%
clouds,
%
prec.,
mm/h
press.,
hPa
HPBL,
m
19 april, mon
mon1900:00+7wnw3391100 0.2 101168
03:00+5w3394100 0.1 101362
06:00+5wnw2293100 0.1 101359
09:00+6wnw2392100 0.0 1014117
12:00+7wnw2289100 0.1 1015148
15:00+8wnw239197 0.1 1014177
18:00+8wnw338771 0.2 101452
21:00+4nw229357 0.0 101614
20 april, tue
tue2000:00+3nw22933 0.0 101713
03:00+2wnw22921 0.0 101612
06:00+1wnw11913 0.0 101611
09:00+5wnw11845 0.0 101586
12:00+11wnw236510 0.0 1011642
15:00+13w2357100 0.0 10081112
18:00+9w2277100 0.0 100820
21:00+7w2291100 0.0 100819
21 april, wed
wed2100:00+6w2294100 0.0 100815
03:00+4w119694 0.0 100812
06:00+3w119716 0.0 100812
09:00+6w018827 0.0 100893
12:00+11w116399 0.0 1007470
15:00+12nw015459 0.0 1005721
18:00+9sse227386 0.1 100727
21:00+6ese229077 0.1 100935
22 april, thu
thu2200:00+5e229413 0.1 101014
03:00+3nne009731 0.0 101112
06:00+3nw119561 0.0 101112
09:00+7n118496 0.0 101159
12:00+12nw236592 0.1 1008848
15:00+12nw3365100 0.2 1007949
18:00+9wnw1188100 0.4 100831
21:00+7wnw2291100 0.2 100914
23 april, fri
fri2300:00+6nne2291100 0.2 100924
03:00+7n2297100 1.3 100860
06:00+7ne2295100 2.0 100872
09:00+7nne1196100 1.0 100958
12:00+8ne2289100 1.6 1008177
15:00+8nne2387100 0.1 1005142
18:00+7nw229253 0.9 100641
21:00+6nnw239374 1.6 1008130